Regional Weather Roundup
Issued by NWS Newport/Morehead, NC

Current Version | Previous Version | Graphics & Text | Print | Product List | Glossary Off
Versions: 1 2 3 4 5 6 7 8 9 10 11 12 13 14 15 16 17 18 19 20 21 22 23 24 25 26 27 28 29 30 31 32 33 34 35 36 37 38 39 40 41 42 43 44 45 46 47 48 49 50

000
ASUS42 KMHX 280022
RWRMHX
WEATHER ROUNDUP FOR EASTERN NORTH CAROLINA
NATIONAL WEATHER SERVICE NEWPORT/MOREHEAD CITY NC
800 PM EDT SUN JUL 27 2014

NOTE: "FAIR" INDICATES FEW OR NO CLOUDS BELOW 12,000 FEET
WITH NO SIGNIFICANT WEATHER AND/OR OBSTRUCTIONS TO VISIBILITY

NCZ015>017-031-032-045>047-102-103-280100-
NORTH COAST

CITY           SKY/WX    TMP DP  RH WIND       PRES   REMARKS
EDENTON        MOCLDY    80  72  76 SW6       29.82R
ELIZABETH CITY CLEAR     78  71  79 SW9       29.81R
KITTY HAWK     CLEAR     80  69  67 SW8       29.80S
MANTEO         NOT AVBL

$$

NCZ045>047-081-094-103-104-280100-
CENTRAL COAST

CITY           SKY/WX    TMP DP  RH WIND       PRES   REMARKS
FRISCO         CLEAR     81  76  84 SW6       29.84S
SWANQUARTER      N/A     82 N/A N/A SW6       29.79S

$$

NCZ095-097-098-100-101-280100-
SOUTHERN COAST

CITY           SKY/WX    TMP DP  RH WIND       PRES   REMARKS
BEAUFORT       CLEAR     84  77  79 SW15        N/A
CEDAR ISLAND     N/A     82 N/A N/A S6G13     29.88S
JACKSONVILLE   CLEAR     84  74  71 SW6       29.83F
NEWPORT        NOT AVBL
PINEY ISLAND   CLEAR     85  79  82 SW8       29.82F
WILMINGTON     CLEAR     86  74  67 SW10      29.85F


$$

NCZ011>013-027>030-043-044-078>080-089-090>093-098-280100-
COASTAL PLAIN

CITY           SKY/WX    TMP DP  RH WIND       PRES   REMARKS
AHOSKIE        MOCLDY    77  73  87 CALM      29.81S
CLINTON        PTCLDY    83  75  75 SW5       29.83S
ELIZABETHTOWN  PTCLDY    85  74  68 S3        29.85F
GOLDSBORO      MOCLDY    83  78  87 S3        29.79F
GREENVILLE     MOCLDY    81  73  78 S3        29.85S
HAVELOCK       MOCLDY    84  74  71 SW7       29.84F
KENANSVILLE    PTCLDY    81  73  76 CALM      29.83F
KINSTON        MOCLDY    81  75  83 CALM      29.83S
NEW BERN       PTCLDY    85  75  72 SW5       29.84F
RICHLANDS      PTCLDY    82  73  74 SW6       29.83S
ROANOKE RAPIDS NOT AVBL
ROCKY MOUNT    PTCLDY    80  74  81 CALM      29.81S
WASHINGTON     MOCLDY    80  73  80 CALM      29.83R
WHITEVILLE     CLEAR     85  73  68 CALM      29.86R

$$

AMZ130-135-150-152-154-156-158-170-250-252-270-ANZ085-086-088-633-658-670-280100-
MARINE OBSERVATIONS

STATION/POSITION TIME  TEMP    WIND        PRES    WAVE   SWELL
                       AIR SEA DIR/SP/G            HT/PER HT/PER
                 (UTC) (F)     (DEG/KT/KT) (MB)    (FT/S) (FT/S)
CHESAPEAKE LIGHT NOT AVBL
BUOY 44014       0000   79 79  200/  8/  8 1008.4    3/ 5   2/ 5
DUCK             0000   81 67  230/ 10/ 12 1008.2
2E DUCK          0000                        N/A     1/ 8
OREGON INLET     0000   82 82  210/ 14/ 16 1009.6
BUOY 44095       0000      79                N/A     3/ 5
20E OREGON INLET NOT AVBL
HATTERAS CG      0000   81 83  190/  4/  9 1010.6
DIAMOND BUOY     0000          VRB 16/ 19  1010.1    3/ 4   2/ 8
CAPE LOOKOUT     0000   82     220/ 12/ 15 1010.4
BEAUFORT LAB     0000   83 83  220/ 10/ 13 1010.0
30 SE NEW RIVER  0000   83 82  220/ 17/ 19 1011.0    3/ 5   2/11
5 SE WRIGHTSVILL 2300   81 83  220/ 14/ 17   N/A
BUOY 41002       2243   82 81  240/ 16/ 19 1015.4    4/ 8   3/ 8
BUOY 41004       0000   84 84  200/ 17/ 19 1012.1    3/ 5   2/11

$$



USA.gov is the U.S. government's official web portal to all federal, state and local government web resources and services.